Regional Weather Roundup
Issued by NWS Jackson, KY

Home | Current Version | Previous Version | Graphics & Text | Print | Product List | Glossary On
Versions: 1 2 3 4 5 6 7 8 9 10 11 12 13 14 15 16 17 18 19 20 21 22 23 24 25 26 27 28 29 30 31 32 33 34 35 36 37 38 39 40 41 42 43 44 45 46 47 48 49 50
000
ASUS43 KJKL 221710
RWRJKL

EAST KENTUCKY HOURLY WEATHER ROUNDUP
NATIONAL WEATHER SERVICE JACKSON KY
100 PM EDT TUE AUG 22 2017

NOTE: "FAIR" INDICATES FEW OR NO CLOUDS BELOW 12,000 FEET WITH
NO SIGNIFICANT WEATHER AND/OR OBSTRUCTIONS TO VISIBILITY.

* THESE REPORTS ARE NOT UNDER NWS QUALITY CONTROL AND MAY NOT
  REPORT WEATHER SUCH AS PRECIPITATION AND FOG.

KYZ079-080-083-085-087-088-110-112-115-119-120-221800
...EASTERN KENTUCKY...

CITY           SKY/WX    TMP DP  RH WIND       PRES   REMARKS
JACKSON        MOSUNNY   85  72  65 VRB5      30.06F HX  91
LONDON         PTSUNNY   85  70  60 SW10      30.07F
SOMERSET*      CLOUDY    82  70  65 W10G18    30.07F
MONTICELLO*    PTSUNNY   87  76  69 W16       30.08F HX  97
WILLIAMSBURG*  MOSUNNY   86  72  62 SW9G17    30.08F HX  92
MIDDLESBORO*   CLOUDY    86  71  59 S8        30.10F HX  91
HARLAN APT*    MOSUNNY   86  64  48 S3        30.11F
PIKE CO APT*   PTSUNNY   85  71  61 S8        30.08F HX  90
BIG SANDY APT* PTSUNNY   87  72  61 SW9G16    30.05F HX  93
MOREHEAD APT*  MOSUNNY   86  73  66 SW13G22   30.02F HX  93
$$

KYZ035-036-041-042-044-050-067-078-099-221800
...CENTRAL KENTUCKY...

CITY           SKY/WX    TMP DP  RH WIND       PRES   REMARKS
MT STERLING*   MOSUNNY   86  73  66 SW12G22   30.01F HAZE    HX  93
FLEMING/MASON* LGT RAIN  77  69  76 NW13G25   29.99F
DANVILLE*      PTSUNNY   86  73  66 SW7       30.03F HX  93
LEXINGTON      LGT RAIN  78  73  84 VRB7      30.01F
FRANKFORT      MOSUNNY   89  71  55 SW17G24   29.97F HX  95
LOUISVILLE     CLOUDY    89  72  56 SW18G24   29.96F THUNDER HX  96
LEBANON*       PTSUNNY   84  73  70 W7        30.01F HX  91
GLASGOW*       LGT RAIN  87  73  64 W17G25    30.03F HX  94
BOWLING GREEN  CLOUDY    88  74  63 SW14      30.02F HX  96
$$

KYZ091>093-OHZ055-061-077-WVZ005-015-034-035-042-221800
...SOUTHERN OHIO/WEST VIRGINIA...

CITY           SKY/WX    TMP DP  RH WIND       PRES   REMARKS
COVINGTON      CLOUDY    78  75  90 S12       29.95F
COLUMBUS       TSTM      71  69  93 W18G53    29.91F FOG
DAYTON         RAIN      74  68  81 W16G31    29.96R
WILMINGTON     CLOUDY    82  74  76 W14       29.93F
HUNTINGTON     PTSUNNY   89  72  56 SW8G20    29.99F HX  96
CHARLESTON     MOSUNNY   88  67  49 SW15G21   30.02F HX  91
PINEVILLE*     PTSUNNY   85  67  55 MISG      30.15F
BECKLEY        MOSUNNY   81  64  56 W12       30.14F
BLUEFIELD      MOSUNNY   80  61  52 W10G25    30.18F
LOGAN CO APT*  PTSUNNY   82  72  69 SW7       30.08F
$$

VAZ002-007-008-TNZ017-027-036-066-071-221800
...SOUTHWEST VIRGINIA/EAST TENNESSEE...

CITY           SKY/WX    TMP DP  RH WIND       PRES   REMARKS
WISE*          SUNNY     81  64  57 SW12      30.19F
JONESVILLE*      N/A     86  66  51 SW12      30.13F
ABINGDON*      PTSUNNY   83  69  61 NW10G16   30.16F
BRISTOL        MOSUNNY   85  69  58 SW12      30.13F
MORRISTOWN*    MOSUNNY   86  72  62 W8G15     30.11F HX  92
SEVIERVILLE*   MOSUNNY   91  66  43 W7        30.10F HX  94
KNOXVILLE      MOSUNNY   85  68  56 SW9       30.10F
LAFOLLETTE*    PTSUNNY   88  72  58 S8        30.13F HX  94
OAK RIDGE      SUNNY     88  70  55 VRB6      30.11F HX  93
CROSSVILLE     PTSUNNY   81  68  64 W6G16     30.15F
NASHVILLE      PTSUNNY   88  73  61 SW9       30.06F HX  95
$$

...KEY TO REMARKS...
VSB - VISIBILITY IN MILES
WCI - WIND CHILL INDEX
HX  - HEAT INDEX

$$



USA.gov is the U.S. government's official web portal to all federal, state and local government web resources and services.